Regional Weather Roundup
Issued by NWS

Home | Current Version | Previous Version | Text Only | Print | Product List | Glossary Off
Versions: 1 2 3 4 5 6 7 8 9 10 11 12 13 14 15 16 17 18 19 20 21 22 23 24 25 26 27 28 29 30 31 32 33 34 35 36 37 38 39 40 41 42 43 44 45 46 47 48 49 50

000
ASUS43 KLSX 231059
RWRMO

WEATHER SUMMARY FOR MISSOURI
NATIONAL WEATHER SERVICE SPRINGFIELD MO
600 AM CDT WED JUL 23 2014

NOTE: "FAIR" INDICATES FEW OR NO CLOUDS BELOW 12,000 FEET WITH NO
       SIGNIFICANT WEATHER AND/OR OBSTRUCTIONS TO VISIBILITY.
       CURRENT SKY AND/OR WEATHER CONDITIONS ARE NOT AVAILABLE FOR
       CHILLICOTHE AND FARMINGTON.

MOZ001>031-035>038-043-044-053-054-231200-
...NORTHERN AND WESTERN MISSOURI...

CITY           SKY/WX    TMP DP  RH WIND       PRES   REMARKS
KANSAS CTY INT PTCLDY    71  67  87 N10       30.14R
KANSAS C DTWN  CLOUDY    77  68  73 N10       30.12R
LEE`S SUMMIT   PTCLDY    75  69  81 NE10      30.12R
ST JOSEPH      CLEAR     68  64  87 N7        30.14R
CHILLICOTHE      N/A     71  66  84 N6        30.12R
KIRKSVILLE     CLEAR     69  65  86 N8        30.12R

$$
MOZ066>068-077>081-088>096-101>105-231200-
...SOUTHWEST MISSOURI...

CITY           SKY/WX    TMP DP  RH WIND       PRES   REMARKS
SPRINGFIELD    PTCLDY    78  74  87 NW3       30.08R
JOPLIN         CLEAR     77  74  90 SW3       30.08R

$$
MOZ032>034-039>042-045>050-055>058-069>072-231200-
...CENTRAL MISSOURI...

CITY           SKY/WX    TMP DP  RH WIND       PRES   REMARKS
COLUMBIA       CLEAR     76  72  87 N10       30.06R
JEFFERSON CITY CLEAR     79  74  84 N7        30.03R
ROLLA          MOCLDY    76  72  87 S5        30.04S
SEDALIA        CLEAR     75  70  84 N8        30.09R
OSAGE BEACH    MOCLDY    75  73  94 CALM      30.05R

$$
MOZ051-052-059>065-231200-
...EAST CENTRAL MISSOURI...

CITY           SKY/WX    TMP DP  RH WIND       PRES   REMARKS
ST LOUIS INTL  MOCLDY    80  74  81 W5        30.00F
SPIRIT OF STL  MOCLDY    75  73  93 W5        30.00S
ST CHARLES     CLEAR     78  75  90 N8        29.99F

$$
MOZ072>076-082>087-097>100-106>115-231200-
...SOUTH CENTRAL AND SOUTHEAST MISSOURI...

CITY           SKY/WX    TMP DP  RH WIND       PRES   REMARKS
CAPE GIRARDEAU MOCLDY    71  68  90 CALM      30.04R FOG
FARMINGTON     MOCLDY    75  68  78 CALM      30.06S
POPLAR BLUFF   CLEAR     72  68  87 SW3       30.03S FOG
WEST PLAINS    PTCLDY    73  68  84 CALM      30.09R

$$



USA.gov is the U.S. government's official web portal to all federal, state and local government web resources and services.